Time,TemperatureF,DewpointF,PressureIn,WindDirection,WindDirectionDegrees,WindSpeedMPH,WindSpeedGustMPH,Humidity,HourlyPrecipIn,Conditions,Clouds,dailyrainin,SoftwareType,DateUTC
2013-03-01 00:11:00,31.9,30.0,29.99,East,97,3.0,6.0,92,0.00,,,0.00,weatherlink.com 1.10,2013-03-01 05:11:00,
2013-03-01 00:26:00,31.8,30.0,29.99,East,89,1.0,6.0,92,0.00,,,0.00,weatherlink.com 1.10,2013-03-01 05:26:00,
2013-03-01 00:41:00,31.8,30.0,29.99,East,85,2.0,5.0,92,0.00,,,0.00,weatherlink.com 1.10,2013-03-01 05:41:00,
2013-03-01 00:56:00,31.7,30.0,29.99,East,101,2.0,6.0,92,0.00,,,0.00,weatherlink.com 1.10,2013-03-01 05:56:00,
2013-03-01 01:11:00,31.6,30.0,29.99,ESE,105,2.0,5.0,92,0.00,,,0.00,weatherlink.com 1.10,2013-03-01 06:11:00,
2013-03-01 01:26:00,31.5,30.0,29.98,East,93,2.0,5.0,92,0.00,,,0.00,weatherlink.com 1.10,2013-03-01 06:26:00,
2013-03-01 01:41:00,31.5,30.0,29.98,East,93,1.0,5.0,92,0.00,,,0.00,weatherlink.com 1.10,2013-03-01 06:41:00,
2013-03-01 01:56:00,31.4,29.0,29.98,ESE,108,2.0,7.0,92,0.00,,,0.00,weatherlink.com 1.10,2013-03-01 06:56:00,
2013-03-01 02:11:00,31.3,29.0,29.98,ESE,114,5.0,6.0,92,0.00,,,0.00,weatherlink.com 1.10,2013-03-01 07:11:00,
2013-03-01 02:27:00,31.3,29.0,29.98,East,97,1.0,5.0,92,0.00,,,0.00,weatherlink.com 1.10,2013-03-01 07:27:00,
2013-03-01 02:42:00,31.2,29.0,29.97,East,91,4.0,8.0,92,0.00,,,0.00,weatherlink.com 1.10,2013-03-01 07:42:00,
2013-03-01 02:57:00,31.2,29.0,29.97,East,96,2.0,7.0,92,0.00,,,0.00,weatherlink.com 1.10,2013-03-01 07:57:00,
2013-03-01 03:12:00,31.1,29.0,29.97,East,95,1.0,6.0,92,0.00,,,0.00,weatherlink.com 1.10,2013-03-01 08:12:00,
2013-03-01 03:27:00,31.1,29.0,29.97,ESE,107,4.0,7.0,92,0.00,,,0.00,weatherlink.com 1.10,2013-03-01 08:27:00,
2013-03-01 03:42:00,31.1,29.0,29.96,ESE,110,4.0,7.0,92,0.00,,,0.00,weatherlink.com 1.10,2013-03-01 08:42:00,
2013-03-01 03:57:00,31.1,29.0,29.96,SE,126,3.0,7.0,92,0.00,,,0.00,weatherlink.com 1.10,2013-03-01 08:57:00,
2013-03-01 04:12:00,30.9,29.0,29.97,ESE,112,3.0,8.0,93,0.00,,,0.00,weatherlink.com 1.10,2013-03-01 09:12:00,
2013-03-01 04:27:00,30.9,29.0,29.97,ESE,116,4.0,9.0,93,0.00,,,0.00,weatherlink.com 1.10,2013-03-01 09:27:00,
2013-03-01 04:42:00,30.7,29.0,29.97,ESE,113,3.0,9.0,93,0.00,,,0.00,weatherlink.com 1.10,2013-03-01 09:42:00,
2013-03-01 04:57:00,30.6,29.0,29.97,ESE,116,2.0,8.0,93,0.00,,,0.00,weatherlink.com 1.10,2013-03-01 09:57:00,
2013-03-01 05:12:00,30.5,29.0,29.98,East,84,2.0,6.0,94,0.00,,,0.00,weatherlink.com 1.10,2013-03-01 10:12:00,
2013-03-01 05:27:00,30.4,29.0,29.98,ESE,110,2.0,6.0,94,0.00,,,0.00,weatherlink.com 1.10,2013-03-01 10:27:00,
2013-03-01 05:42:00,30.4,29.0,29.98,ESE,117,5.0,6.0,95,0.00,,,0.00,weatherlink.com 1.10,2013-03-01 10:42:00,
2013-03-01 05:57:00,30.3,29.0,29.98,ESE,120,2.0,6.0,95,0.00,,,0.00,weatherlink.com 1.10,2013-03-01 10:57:00,
2013-03-01 06:12:00,30.2,29.0,29.98,East,101,1.0,5.0,95,0.00,,,0.00,weatherlink.com 1.10,2013-03-01 11:12:00,
2013-03-01 06:27:00,30.3,29.0,29.99,ESE,105,2.0,5.0,95,0.00,,,0.00,weatherlink.com 1.10,2013-03-01 11:27:00,
2013-03-01 06:42:00,30.4,29.0,29.99,ESE,105,2.0,5.0,95,0.00,,,0.00,weatherlink.com 1.10,2013-03-01 11:42:00,
2013-03-01 06:57:00,30.4,29.0,29.99,ESE,103,1.0,6.0,95,0.00,,,0.00,weatherlink.com 1.10,2013-03-01 11:57:00,
2013-03-01 07:12:00,30.4,29.0,29.99,ESE,103,2.0,5.0,95,0.00,,,0.00,weatherlink.com 1.10,2013-03-01 12:12:00,
2013-03-01 07:27:00,30.3,29.0,29.99,ESE,103,1.0,5.0,95,0.00,,,0.00,weatherlink.com 1.10,2013-03-01 12:27:00,
2013-03-01 07:42:00,30.1,29.0,30.00,ESE,110,2.0,5.0,95,0.00,,,0.00,weatherlink.com 1.10,2013-03-01 12:42:00,
2013-03-01 07:57:00,30.0,29.0,30.01,ESE,104,2.0,5.0,95,0.00,,,0.00,weatherlink.com 1.10,2013-03-01 12:57:00,
2013-03-01 08:12:00,30.1,29.0,30.01,ESE,103,1.0,5.0,96,0.00,,,0.00,weatherlink.com 1.10,2013-03-01 13:12:00,
2013-03-01 08:27:00,30.2,29.0,30.01,ESE,107,1.0,6.0,96,0.00,,,0.00,weatherlink.com 1.10,2013-03-01 13:27:00,
2013-03-01 08:42:00,30.3,29.0,30.01,East,101,2.0,4.0,96,0.00,,,0.00,weatherlink.com 1.10,2013-03-01 13:42:00,
2013-03-01 08:57:00,30.4,29.0,30.01,ESE,113,2.0,5.0,96,0.00,,,0.00,weatherlink.com 1.10,2013-03-01 13:57:00,
2013-03-01 09:12:00,30.5,30.0,30.02,ESE,104,1.0,7.0,96,0.00,,,0.00,weatherlink.com 1.10,2013-03-01 14:12:00,
2013-03-01 09:27:00,30.6,29.0,30.01,ESE,112,2.0,6.0,95,0.00,,,0.00,weatherlink.com 1.10,2013-03-01 14:27:00,
2013-03-01 09:42:00,30.8,30.0,30.01,ENE,75,0.0,6.0,95,0.00,,,0.00,weatherlink.com 1.10,2013-03-01 14:42:00,
2013-03-01 09:57:00,31.0,30.0,30.01,ESE,103,1.0,4.0,95,0.00,,,0.00,weatherlink.com 1.10,2013-03-01 14:57:00,
2013-03-01 10:12:00,31.0,30.0,30.02,ESE,114,4.0,5.0,95,0.00,,,0.00,weatherlink.com 1.10,2013-03-01 15:12:00,
2013-03-01 10:27:00,31.2,30.0,30.02,ESE,105,1.0,5.0,95,0.00,,,0.00,weatherlink.com 1.10,2013-03-01 15:27:00,
2013-03-01 10:42:00,31.4,30.0,30.02,East,98,1.0,5.0,95,0.00,,,0.00,weatherlink.com 1.10,2013-03-01 15:42:00,
2013-03-01 10:57:00,31.8,31.0,30.02,ESE,105,0.0,2.0,95,0.00,,,0.00,weatherlink.com 1.10,2013-03-01 15:57:00,
2013-03-01 11:12:00,32.1,31.0,30.03,ESE,118,2.0,4.0,95,0.00,,,0.00,weatherlink.com 1.10,2013-03-01 16:12:00,
2013-03-01 11:27:00,32.1,31.0,30.03,SE,130,2.0,4.0,95,0.00,,,0.00,weatherlink.com 1.10,2013-03-01 16:27:00,
2013-03-01 11:42:00,31.9,31.0,30.03,East,96,4.0,5.0,95,0.00,,,0.00,weatherlink.com 1.10,2013-03-01 16:42:00,
2013-03-01 11:57:00,32.0,31.0,30.03,ESE,114,2.0,5.0,94,0.00,,,0.00,weatherlink.com 1.10,2013-03-01 16:57:00,
2013-03-01 12:12:00,32.5,31.0,30.03,East,94,2.0,5.0,93,0.00,,,0.00,weatherlink.com 1.10,2013-03-01 17:12:00,
2013-03-01 12:28:00,32.5,31.0,30.03,SSW,198,2.0,7.0,92,0.00,,,0.00,weatherlink.com 1.10,2013-03-01 17:28:00,
2013-03-01 12:43:00,32.7,31.0,30.04,WSW,244,3.0,5.0,92,0.00,,,0.00,weatherlink.com 1.10,2013-03-01 17:43:00,
2013-03-01 12:58:00,32.7,31.0,30.03,ESE,117,2.0,5.0,92,0.00,,,0.00,weatherlink.com 1.10,2013-03-01 17:58:00,
2013-03-01 13:13:00,32.5,31.0,30.03,ESE,120,1.0,5.0,92,0.00,,,0.00,weatherlink.com 1.10,2013-03-01 18:13:00,
2013-03-01 13:28:00,32.1,30.0,30.03,SW,218,5.0,6.0,93,0.00,,,0.00,weatherlink.com 1.10,2013-03-01 18:28:00,
2013-03-01 13:43:00,32.1,30.0,30.03,East,101,1.0,6.0,93,0.00,,,0.00,weatherlink.com 1.10,2013-03-01 18:43:00,
2013-03-01 13:58:00,32.1,30.0,30.02,ENE,64,2.0,6.0,93,0.00,,,0.00,weatherlink.com 1.10,2013-03-01 18:58:00,
2013-03-01 14:13:00,32.2,31.0,30.02,South,184,3.0,3.0,94,0.00,,,0.00,weatherlink.com 1.10,2013-03-01 19:13:00,
2013-03-01 14:28:00,32.6,31.0,30.02,East,88,1.0,4.0,92,0.00,,,0.00,weatherlink.com 1.10,2013-03-01 19:28:00,
2013-03-01 14:43:00,32.7,30.0,30.02,South,170,2.0,5.0,90,0.00,,,0.00,weatherlink.com 1.10,2013-03-01 19:43:00,
2013-03-01 14:58:00,33.0,30.0,30.02,SW,226,4.0,5.0,90,0.00,,,0.00,weatherlink.com 1.10,2013-03-01 19:58:00,
2013-03-01 15:13:00,33.2,30.0,30.02,SE,134,2.0,5.0,89,0.00,,,0.00,weatherlink.com 1.10,2013-03-01 20:13:00,
2013-03-01 15:28:00,33.2,30.0,30.02,East,98,1.0,5.0,88,0.00,,,0.00,weatherlink.com 1.10,2013-03-01 20:28:00,
2013-03-01 15:43:00,33.3,30.0,30.03,ESE,102,1.0,6.0,87,0.00,,,0.00,weatherlink.com 1.10,2013-03-01 20:43:00,
2013-03-01 15:58:00,33.3,30.0,30.03,ESE,122,4.0,5.0,86,0.00,,,0.00,weatherlink.com 1.10,2013-03-01 20:58:00,
2013-03-01 16:13:00,33.2,30.0,30.03,SW,228,4.0,7.0,86,0.00,,,0.00,weatherlink.com 1.10,2013-03-01 21:13:00,
2013-03-01 16:28:00,33.0,29.0,30.03,ESE,109,1.0,5.0,86,0.00,,,0.00,weatherlink.com 1.10,2013-03-01 21:28:00,
2013-03-01 16:43:00,32.7,29.0,30.03,ESE,115,2.0,6.0,86,0.00,,,0.00,weatherlink.com 1.10,2013-03-01 21:43:00,
2013-03-01 16:58:00,32.5,29.0,30.04,ESE,105,1.0,6.0,87,0.00,,,0.00,weatherlink.com 1.10,2013-03-01 21:58:00,
2013-03-01 17:13:00,32.4,29.0,30.04,East,96,0.0,5.0,87,0.00,,,0.00,weatherlink.com 1.10,2013-03-01 22:13:00,
2013-03-01 17:28:00,32.4,29.0,30.04,SE,133,3.0,4.0,87,0.00,,,0.00,weatherlink.com 1.10,2013-03-01 22:28:00,
2013-03-01 17:43:00,32.3,29.0,30.05,ESE,110,1.0,6.0,86,0.00,,,0.00,weatherlink.com 1.10,2013-03-01 22:43:00,
2013-03-01 17:58:00,32.1,28.0,30.05,SE,129,2.0,4.0,86,0.00,,,0.00,weatherlink.com 1.10,2013-03-01 22:58:00,
2013-03-01 18:13:00,32.1,29.0,30.05,East,93,0.0,2.0,87,0.00,,,0.00,weatherlink.com 1.10,2013-03-01 23:13:00,
2013-03-01 18:28:00,31.9,29.0,30.06,East,98,0.0,4.0,87,0.00,,,0.00,weatherlink.com 1.10,2013-03-01 23:28:00,
2013-03-01 18:43:00,31.9,28.0,30.06,ESE,110,1.0,3.0,86,0.00,,,0.00,weatherlink.com 1.10,2013-03-01 23:43:00,
2013-03-01 18:58:00,31.8,28.0,30.07,East,98,0.0,3.0,87,0.00,,,0.00,weatherlink.com 1.10,2013-03-01 23:58:00,
2013-03-01 19:13:00,31.7,29.0,30.07,ESE,105,2.0,2.0,88,0.00,,,0.00,weatherlink.com 1.10,2013-03-02 00:13:00,
2013-03-01 19:28:00,31.6,29.0,30.07,ESE,110,2.0,2.0,88,0.00,,,0.00,weatherlink.com 1.10,2013-03-02 00:28:00,
2013-03-01 19:43:00,31.5,28.0,30.07,ESE,105,1.0,2.0,87,0.00,,,0.00,weatherlink.com 1.10,2013-03-02 00:43:00,
2013-03-01 19:58:00,31.5,28.0,30.07,SE,127,2.0,2.0,87,0.00,,,0.00,weatherlink.com 1.10,2013-03-02 00:58:00,
2013-03-01 20:13:00,31.6,28.0,30.07,East,92,2.0,4.0,86,0.00,,,0.00,weatherlink.com 1.10,2013-03-02 01:13:00,
2013-03-01 20:28:00,31.3,27.0,30.08,ESE,105,0.0,3.0,84,0.00,,,0.00,weatherlink.com 1.10,2013-03-02 01:28:00,
2013-03-01 20:43:00,31.2,28.0,30.08,East,96,1.0,2.0,86,0.00,,,0.00,weatherlink.com 1.10,2013-03-02 01:43:00,
2013-03-01 20:58:00,31.0,27.0,30.08,East,101,1.0,2.0,86,0.00,,,0.00,weatherlink.com 1.10,2013-03-02 01:58:00,
2013-03-01 21:13:00,30.9,27.0,30.08,ESE,105,1.0,2.0,85,0.00,,,0.00,weatherlink.com 1.10,2013-03-02 02:13:00,
2013-03-01 21:28:00,30.8,27.0,30.08,ESE,110,1.0,3.0,86,0.00,,,0.00,weatherlink.com 1.10,2013-03-02 02:28:00,
2013-03-01 21:43:00,30.6,27.0,30.08,South,188,2.0,5.0,85,0.00,,,0.00,weatherlink.com 1.10,2013-03-02 02:43:00,
2013-03-01 21:58:00,30.5,27.0,30.08,East,101,1.0,3.0,86,0.00,,,0.00,weatherlink.com 1.10,2013-03-02 02:58:00,
2013-03-01 22:13:00,30.3,26.0,30.08,East,101,1.0,3.0,85,0.00,,,0.00,weatherlink.com 1.10,2013-03-02 03:13:00,
2013-03-01 22:28:00,30.2,27.0,30.08,ESE,103,0.0,2.0,86,0.00,,,0.00,weatherlink.com 1.10,2013-03-02 03:28:00,
2013-03-01 22:43:00,30.1,26.0,30.08,East,101,0.0,3.0,86,0.00,,,0.00,weatherlink.com 1.10,2013-03-02 03:43:00,
2013-03-01 22:58:00,29.9,26.0,30.08,East,96,0.0,3.0,86,0.00,,,0.00,weatherlink.com 1.10,2013-03-02 03:58:00,
2013-03-01 23:13:00,29.9,26.0,30.08,East,97,1.0,3.0,86,0.00,,,0.00,weatherlink.com 1.10,2013-03-02 04:13:00,
2013-03-01 23:28:00,29.8,26.0,30.08,East,97,1.0,4.0,86,0.00,,,0.00,weatherlink.com 1.10,2013-03-02 04:28:00,
2013-03-01 23:43:00,29.5,26.0,30.08,SE,134,2.0,4.0,86,0.00,,,0.00,weatherlink.com 1.10,2013-03-02 04:43:00,
2013-03-01 23:58:00,29.4,26.0,30.08,SSE,156,2.0,3.0,86,0.00,,,0.00,weatherlink.com 1.10,2013-03-02 04:58:00,